Satellite: ASTRA 1B
Catalog number: 21139
Epoch time:      102364.00000000
Element set:     156 
Inclination:        0.0122 deg
RA of node:       319.8851 deg
Eccentricity:    0.0002995
Arg of perigee:    65.1991 deg
Mean anomaly:      92.3752 deg
Mean motion:    1.00273184 rev/day
Decay rate:    1.2799E-006 rev/day^2
Epoch rev:            3168
Checksum:              255

Satellite: METEOSAT 5 (MO
Catalog number: 21140
Epoch time:      103008.71049990
Element set:     668 
Inclination:        5.5390 deg
RA of node:        70.2090 deg
Eccentricity:    0.0001079
Arg of perigee:   154.8368 deg
Mean anomaly:     201.8648 deg
Mean motion:    1.00279909 rev/day
Decay rate:    2.0999E-007 rev/day^2
Epoch rev:            4563
Checksum:              306

Satellite: NOAA 12
Catalog number: 21263
Epoch time:      103012.97346629
Element set:     929 
Inclination:       98.6218 deg
RA of node:         3.2298 deg
Eccentricity:    0.0013326
Arg of perigee:   125.3148 deg
Mean anomaly:     234.9279 deg
Mean motion:   14.25051961 rev/day
Decay rate:    3.1100E-006 rev/day^2
Epoch rev:           60600
Checksum:              287

Satellite: OSCAR 22 (UoSA
Catalog number: 21575
Epoch time:      103013.21499654
Element set:     699 
Inclination:       98.1365 deg
RA of node:         7.1790 deg
Eccentricity:    0.0006446
Arg of perigee:   242.5225 deg
Mean anomaly:     117.5312 deg
Mean motion:   14.39124862 rev/day
Decay rate:    3.1800E-006 rev/day^2
Epoch rev:           60305
Checksum:              300

Satellite: METEOR 3-5
Catalog number: 21655
Epoch time:      103012.97998820
Element set:     630 
Inclination:       82.5555 deg
RA of node:        64.7192 deg
Eccentricity:    0.0012562
Arg of perigee:   293.2019 deg
Mean anomaly:      66.7779 deg
Mean motion:   13.16978057 rev/day
Decay rate:    5.1000E-007 rev/day^2
Epoch rev:           54866
Checksum:              335

Satellite: UARS
Catalog number: 21701
Epoch time:      103013.04355686
Element set:     798 
Inclination:       56.9784 deg
RA of node:       179.8785 deg
Eccentricity:    0.0006154
Arg of perigee:   113.8471 deg
Mean anomaly:     246.3241 deg
Mean motion:   15.02771057 rev/day
Decay rate:    1.0820E-005 rev/day^2
Epoch rev:           62022
Checksum:              298

Satellite: EUTELSAT 2-F3
Catalog number: 21803
Epoch time:      103011.83353589
Element set:     507 
Inclination:        2.5029 deg
RA of node:        89.5025 deg
Eccentricity:    0.0002836
Arg of perigee:   216.3742 deg
Mean anomaly:     126.5174 deg
Mean motion:    1.00274794 rev/day
Decay rate:    1.4299E-006 rev/day^2
Epoch rev:            3661
Checksum:              289

Satellite: INMARSAT 2-F3
Catalog number: 21814
Epoch time:      103013.34685453
Element set:     599 
Inclination:        1.6732 deg
RA of node:        56.9018 deg
Eccentricity:    0.0002454
Arg of perigee:   250.0588 deg
Mean anomaly:     148.2479 deg
Mean motion:    1.00272517 rev/day
Decay rate:    1.3100E-006 rev/day^2
Epoch rev:            4053
Checksum:              273

Satellite: INMARSAT 2-F4
Catalog number: 21940
Epoch time:      103010.69024135
Element set:     562 
Inclination:        2.3746 deg
RA of node:        19.0466 deg
Eccentricity:    0.0001728
Arg of perigee:   243.7312 deg
Mean anomaly:     204.5234 deg
Mean motion:    1.00267051 rev/day
Decay rate:   -3.4100E-006 rev/day^2
Epoch rev:            3929
Checksum:              247

Satellite: EUTELSAT 2-F4
Catalog number: 22028
Epoch time:      103013.00947339
Element set:     314 
Inclination:        1.6285 deg
RA of node:        93.1256 deg
Eccentricity:    0.0005842
Arg of perigee:   205.5487 deg
Mean anomaly:     164.4844 deg
Mean motion:    1.00272420 rev/day
Decay rate:   -8.2000E-007 rev/day^2
Epoch rev:            3141
Checksum:              255

Satellite: OSCAR 23 (KITS
Catalog number: 22077
Epoch time:      103012.95037567
Element set:     229 
Inclination:       66.0849 deg
RA of node:       202.4135 deg
Eccentricity:    0.0014872
Arg of perigee:   282.4002 deg
Mean anomaly:      77.5351 deg
Mean motion:   12.86407607 rev/day
Decay rate:   -3.7000E-007 rev/day^2
Epoch rev:           48959
Checksum:              305

Satellite: ASTRA 1C
Catalog number: 22653
Epoch time:      102364.00000000
Element set:     782 
Inclination:        0.0122 deg
RA of node:       319.8851 deg
Eccentricity:    0.0002995
Arg of perigee:    65.1991 deg
Mean anomaly:      92.3588 deg
Mean motion:    1.00273184 rev/day
Decay rate:    1.2799E-006 rev/day^2
Epoch rev:            3038
Checksum:              265

Satellite: METEOR 2-21
Catalog number: 22782
Epoch time:      103012.57936005
Element set:     490 
Inclination:       82.5472 deg
RA of node:       244.2338 deg
Eccentricity:    0.0023725
Arg of perigee:    89.8668 deg
Mean anomaly:     270.5215 deg
Mean motion:   13.83529161 rev/day
Decay rate:    1.9900E-006 rev/day^2
Epoch rev:           47297
Checksum:              322

Satellite: KITSAT B
Catalog number: 22825
Epoch time:      103012.99080209
Element set:     480 
Inclination:       98.2783 deg
RA of node:        44.5471 deg
Eccentricity:    0.0008915
Arg of perigee:    14.0818 deg
Mean anomaly:     346.0611 deg
Mean motion:   14.28927980 rev/day
Decay rate:    1.2599E-006 rev/day^2
Epoch rev:           48465
Checksum:              321

Satellite: POSAT 1
Catalog number: 22826
Epoch time:      103012.67670694
Element set:     298 
Inclination:       98.2787 deg
RA of node:        45.3466 deg
Eccentricity:    0.0009595
Arg of perigee:    12.7496 deg
Mean anomaly:     347.3926 deg
Mean motion:   14.29149639 rev/day
Decay rate:    1.5599E-006 rev/day^2
Epoch rev:           48465
Checksum:              371

Satellite: ITAMSAT
Catalog number: 22828
Epoch time:      103013.50580684
Element set:     400 
Inclination:       98.2747 deg
RA of node:        46.3976 deg
Eccentricity:    0.0010348
Arg of perigee:   350.1815 deg
Mean anomaly:       9.9170 deg
Mean motion:   14.29494235 rev/day
Decay rate:    1.2799E-006 rev/day^2
Epoch rev:           45297
Checksum:              318

Satellite: EYESAT A
Catalog number: 22829
Epoch time:      103013.52147228
Element set:     424 
Inclination:       98.2773 deg
RA of node:        46.9998 deg
Eccentricity:    0.0010053
Arg of perigee:   350.8398 deg
Mean anomaly:       9.2612 deg
Mean motion:   14.29747352 rev/day
Decay rate:    2.4900E-006 rev/day^2
Epoch rev:           48490
Checksum:              315

Satellite: METEOSAT 6
Catalog number: 22912
Epoch time:      103011.14365742
Element set:     630 
Inclination:        2.5852 deg
RA of node:        82.5529 deg
Eccentricity:    0.0000816
Arg of perigee:   152.6199 deg
Mean anomaly:     296.0429 deg
Mean motion:    1.00270184 rev/day
Decay rate:    7.5000E-007 rev/day^2
Epoch rev:            3191
Checksum:              267

Satellite: GOES 8
Catalog number: 23051
Epoch time:      103012.33058417
Element set:     556 
Inclination:        0.2099 deg
RA of node:       106.4263 deg
Eccentricity:    0.0002309
Arg of perigee:   194.9357 deg
Mean anomaly:     213.7271 deg
Mean motion:    1.00260092 rev/day
Decay rate:   -2.2900E-006 rev/day^2
Epoch rev:            3943
Checksum:              257

Satellite: ASTRA 1D
Catalog number: 23331
Epoch time:      103011.92630788
Element set:     801 
Inclination:        0.0526 deg
RA of node:       203.9533 deg
Eccentricity:    0.0006616
Arg of perigee:    34.1070 deg
Mean anomaly:     230.6604 deg
Mean motion:    1.00275058 rev/day
Decay rate:    1.5699E-006 rev/day^2
Epoch rev:            3049
Checksum:              359

Satellite: RADIO ROSTO
Catalog number: 23439
Epoch time:      103013.37330259
Element set:     674 
Inclination:       64.8159 deg
RA of node:       100.0131 deg
Eccentricity:    0.0147885
Arg of perigee:   122.3331 deg
Mean anomaly:     239.2049 deg
Mean motion:   11.27548024 rev/day
Decay rate:   -3.7000E-007 rev/day^2
Epoch rev:           33151
Checksum:              265

Satellite: NOAA 14
Catalog number: 23455
Epoch time:      103013.01425392
Element set:     484 
Inclination:       99.1877 deg
RA of node:        30.6193 deg
Eccentricity:    0.0008977
Arg of perigee:   335.9957 deg
Mean anomaly:      24.0795 deg
Mean motion:   14.13281518 rev/day
Decay rate:    1.1600E-006 rev/day^2
Epoch rev:           41431
Checksum:              306

Satellite: HIMAWARI 5 (GM
Catalog number: 23522
Epoch time:      103012.64350038
Element set:     49 
Inclination:        1.6622 deg
RA of node:        82.8695 deg
Eccentricity:    0.0000905
Arg of perigee:   100.6322 deg
Mean anomaly:     300.1107 deg
Mean motion:    1.00270595 rev/day
Decay rate:   -2.6299E-006 rev/day^2
Epoch rev:            2852
Checksum:              374

Satellite: HOT BIRD 1
Catalog number: 23537
Epoch time:      102364.09542247
Element set:     531 
Inclination:        0.1178 deg
RA of node:        62.3444 deg
Eccentricity:    0.0060331
Arg of perigee:   260.0229 deg
Mean anomaly:     182.7219 deg
Mean motion:    1.00272908 rev/day
Decay rate:    9.0999E-007 rev/day^2
Epoch rev:            2846
Checksum:              282

Satellite: GOES 9
Catalog number: 23581
Epoch time:      103013.29570715
Element set:     470 
Inclination:        0.3686 deg
RA of node:       278.0518 deg
Eccentricity:    0.0007891
Arg of perigee:   225.9782 deg
Mean anomaly:     307.5285 deg
Mean motion:    1.00033925 rev/day
Decay rate:    9.5000E-007 rev/day^2
Epoch rev:            2800
Checksum:              289

